Location: ??
(35.1714°N, 128.2806°E)
Time: 19:29:11
(UTC+00:00)

Tiangong - Pass Details

Date: 22 June 2021
Orbit: 373 x 385 km, 41.5° (Epoch: 04 August)

Event Time Altitude Azimuth Distance (km) Brightness Sun altitude
Exits shadow 19:15:37 - 286° (WNW) 1,767 4.1 -10.6°
Reaches altitude 10° 19:16:39 10° 293° (WNW) 1,391 3.6 -10.4°
Maximum altitude 19:19:21 26° 353° (N) 788 3.0 -10.0°
Drops below altitude 10° 19:22:06 10° 53° (NE) 1,401 5.6 -9.5°
Sets 19:24:23 0° 67° (ENE) 2,257 6.8 -9.2°
